Theta_e
327 328 328 329 329 328 327 328 329 328 327 326 323 321 320 317 313 312 310 310 310 310 309 309 308 309 308 307 305 304 303 303 301 301 299 298 297 302 312 313 312 314 316 317 318 319 319 320 321 323 323 323 322 323 323 325 327 329 332 332 332 330 329 328 327 326 325 325 324 323 321 321 321 320 321 321 321 321 321 321 322 321 320 322 324
325 328 328 327 328 327 325 325 324 324 326 324 322 320 318 316 314 313 313 312 313 310 308 309 309 307 306 306 305 304 302 302 302 301 302 301 300 300 309 311 312 313 315 315 316 317 318 319 320 322 322 322 322 323 323 322 323 325 327 329 331 331 331 331 329 328 327 326 325 323 322 321 321 321 321 321 320 320 320 320 320 320 321 320 321
320 321 322 321 321 321 321 321 320 321 321 320 320 319 319 318 317 314 314 314 312 310 309 308 307 308 305 307 306 305 305 304 303 303 302 301 300 300 302 309 313 312 313 313 315 316 318 319 319 319 320 321 321 322 322 323 323 323 324 325 326 328 329 330 330 331 330 328 326 324 322 322 322 322 321 321 321 320 320 320 320 319 320 320 320
317 316 316 316 316 315 316 316 316 318 319 319 319 319 318 318 318 317 315 313 312 311 311 310 308 307 307 307 306 306 305 303 302 301 300 299 299 298 298 301 306 310 312 312 314 316 317 318 318 318 319 321 322 322 321 321 321 321 323 323 324 324 324 326 327 328 330 330 328 325 324 323 322 322 322 322 321 321 320 320 320 320 320 320 320
315 314 313 313 313 312 312 312 313 314 315 315 315 314 312 313 314 313 310 311 309 308 309 307 306 306 306 305 305 303 302 301 299 299 299 298 298 298 297 298 298 303 308 310 311 311 313 315 316 317 318 319 320 321 322 321 320 320 319 320 321 323 324 323 323 324 326 329 329 327 326 325 324 323 323 322 322 321 321 320 319 319 319 320 320
312 311 311 310 309 309 309 309 310 311 311 311 310 309 308 308 308 308 306 305 304 303 303 302 303 303 304 304 304 302 300 299 298 298 298 297 297 298 298 298 297 298 299 304 308 307 309 311 311 312 314 316 318 320 320 321 321 321 321 322 321 321 322 321 322 323 323 323 325 327 328 328 328 328 326 324 322 322 321 320 320 320 320 320 320
307 307 307 307 306 306 307 307 308 308 308 308 307 306 305 305 305 306 303 301 301 300 299 299 300 301 302 302 301 299 298 298 298 298 297 297 297 297 298 298 298 298 298 297 300 304 305 307 309 309 312 314 316 317 320 320 320 321 321 321 321 322 321 320 319 320 321 321 322 322 322 324 326 327 327 327 324 323 322 321 320 319 320 320 320
304 304 303 303 303 304 305 306 307 307 307 307 306 304 303 300 299 300 298 297 297 296 297 297 298 299 300 300 298 298 297 297 298 297 297 297 296 296 296 297 298 298 299 297 296 298 304 304 306 307 308 311 313 315 316 317 318 318 319 320 320 321 320 320 320 320 319 318 318 319 320 320 322 323 325 326 326 324 324 323 322 323 321 320 321
302 302 302 302 302 303 304 304 305 305 305 305 304 303 300 297 296 296 296 294 294 293 294 295 297 298 299 298 297 297 297 298 297 296 297 295 294 293 293 294 296 298 294 294 296 295 298 301 302 304 305 307 309 312 312 313 316 318 319 319 319 319 318 318 319 319 318 318 317 317 318 318 319 320 320 321 323 325 326 326 326 326 324 321 320
302 301 300 299 300 300 301 301 302 301 301 301 301 300 297 295 293 293 293 292 291 291 291 293 296 298 298 297 296 296 296 297 297 297 296 294 293 292 291 291 292 293 292 292 294 294 292 294 298 298 300 303 306 309 310 310 312 315 317 317 318 319 318 317 318 318 318 318 318 318 319 319 319 320 320 320 321 321 322 324 325 325 326 325 323
299 299 297 296 296 296 296 296 297 297 296 296 296 298 297 295 293 292 291 290 290 290 291 293 295 298 298 294 294 294 295 295 296 296 295 294 294 293 292 290 291 292 291 291 291 293 290 289 289 290 291 300 304 307 308 308 309 311 313 315 318 319 317 317 317 317 316 317 317 317 318 318 318 319 319 320 320 321 321 322 322 324 325 325 326
295 295 294 293 293 293 293 294 294 293 293 292 292 292 294 295 293 291 289 289 290 289 290 291 293 295 295 292 290 290 291 292 293 294 295 295 292 291 289 289 289 290 291 290 290 291 289 289 290 289 290 294 299 302 306 307 306 309 311 312 314 315 316 315 315 314 314 314 315 315 316 316 317 317 317 318 319 320 321 321 322 322 323 324 325
293 293 293 293 292 292 291 291 292 292 291 290 290 290 291 292 293 292 289 288 288 288 288 289 291 292 293 293 292 289 290 290 290 290 293 293 292 290 288 288 287 288 290 289 289 290 289 288 288 288 289 290 292 297 301 303 302 305 308 310 311 312 312 313 311 310 309 310 311 311 311 310 311 313 315 316 317 318 319 320 321 322 323 324 324
292 292 291 291 290 291 290 290 290 290 290 290 289 290 289 289 289 288 288 287 286 287 288 287 285 285 289 291 290 290 289 289 290 288 289 289 291 290 288 287 287 287 289 288 287 289 288 288 288 288 288 289 290 291 293 294 295 301 305 308 310 311 312 313 312 311 310 309 309 309 310 310 310 311 311 312 314 316 316 317 319 320 321 323 324
290 290 290 289 289 288 288 289 288 289 288 288 288 287 287 287 287 286 285 286 286 287 287 287 284 285 286 285 283 287 288 286 288 289 288 286 287 288 288 287 287 287 288 287 286 288 289 287 288 288 288 288 289 290 291 292 292 297 301 305 307 310 312 313 312 310 308 308 310 311 311 311 311 311 311 311 311 312 314 315 316 317 318 319 321
289 289 289 288 288 288 288 288 288 288 287 287 287 287 287 286 287 287 285 284 284 285 286 287 286 284 280 283 283 280 278 281 285 286 286 285 286 286 287 286 286 287 287 286 286 287 287 287 287 288 287 288 288 289 290 288 291 294 296 300 304 306 308 310 310 310 308 309 308 309 310 310 311 311 311 311 311 312 312 312 314 315 316 317 318
288 288 288 287 287 287 287 287 287 287 287 287 286 286 286 286 286 286 285 283 283 283 285 286 286 286 284 281 279 279 279 281 282 281 284 284 285 285 286 285 285 286 285 285 286 286 286 286 287 287 287 287 287 289 287 288 288 289 293 298 300 302 302 306 308 308 308 309 309 308 309 309 309 310 311 312 312 312 312 312 312 312 314 316 316
287 287 287 287 287 287 286 286 286 286 286 286 286 286 286 286 285 285 285 285 284 283 282 285 285 285 285 284 282 279 279 281 279 277 282 282 284 284 283 284 284 284 284 284 285 285 285 285 286 286 287 287 287 288 285 287 289 287 293 296 300 300 300 302 306 307 307 308 308 308 308 309 309 310 310 311 312 312 312 312 312 312 312 312 314
286 286 286 286 286 286 286 286 286 286 286 285 285 284 285 285 285 285 284 286 284 283 282 282 282 284 284 283 284 283 282 279 277 277 275 277 281 282 282 283 283 283 283 283 284 283 284 284 285 286 286 286 286 286 285 286 290 292 296 299 300 299 300 300 300 301 303 305 307 307 308 309 309 310 310 311 311 311 311 311 312 312 312 313 313
285 285 285 285 285 285 285 285 285 285 285 285 284 284 285 285 285 284 284 284 283 283 281 282 281 281 283 282 282 281 281 281 280 278 278 276 276 279 281 281 282 282 282 282 283 283 283 283 284 285 286 286 285 285 285 285 285 286 290 298 299 299 299 299 298 298 299 301 304 306 307 308 309 310 310 310 309 309 310 311 311 312 312 312 313
285 285 284 285 285 284 284 284 284 284 284 284 284 284 283 283 283 283 283 283 283 282 282 280 281 280 279 280 279 280 279 279 279 279 278 276 275 276 277 280 280 279 281 281 282 283 283 283 284 284 286 286 285 285 285 285 286 286 293 296 298 300 300 299 298 297 297 298 300 302 305 306 307 309 309 309 309 309 310 311 311 312 312 313 313
284 284 284 284 284 284 284 283 283 284 284 283 283 283 283 282 282 282 282 281 281 282 281 280 281 280 280 279 279 279 278 278 278 278 276 277 276 276 277 276 276 278 280 279 281 282 282 282 281 282 284 284 284 284 285 285 285 286 290 294 296 298 298 296 297 297 297 297 297 298 302 304 307 308 308 307 307 309 310 310 310 311 311 312 312
283 283 283 283 283 283 283 283 283 283 283 282 282 282 282 281 281 281 281 281 280 280 281 280 280 280 279 279 278 280 279 277 277 277 276 275 275 275 276 276 277 276 276 279 281 281 281 281 280 282 282 282 282 284 283 283 286 288 291 291 292 293 293 295 295 295 295 296 297 298 300 301 302 304 306 307 308 309 309 309 309 309 310 311 311
282 282 282 282 282 282 282 282 282 282 282 281 282 281 281 281 280 280 280 280 280 280 280 279 279 279 278 278 278 279 279 279 278 278 278 276 276 275 275 276 275 276 278 278 279 278 280 280 280 281 281 281 282 283 283 283 283 289 288 287 289 290 293 294 296 294 294 294 295 296 297 297 298 299 300 304 306 308 308 308 308 308 309 309 309
281 281 281 281 281 281 281 280 280 281 281 281 280 280 280 280 280 279 279 279 278 279 279 278 278 278 278 278 279 279 278 279 279 278 277 277 276 274 275 276 274 275 276 276 276 278 278 279 280 280 280 280 282 282 282 282 281 287 287 285 287 288 289 290 291 292 293 294 294 295 296 296 297 299 301 302 304 306 306 306 306 307 308 308 308
281 281 281 281 281 281 280 280 280 280 280 280 280 280 280 279 279 279 278 278 278 278 278 278 278 277 278 278 277 277 277 278 277 278 277 277 275 274 274 275 275 274 276 274 275 275 275 277 278 279 278 279 280 280 280 281 281 286 286 284 284 286 286 287 289 290 292 293 293 294 294 294 296 297 298 300 302 303 304 304 305 305 306 306 307
281 281 281 281 280 280 280 279 279 279 279 279 280 279 279 279 278 277 278 278 277 278 277 277 278 276 276 276 278 277 277 278 276 277 277 277 276 276 275 273 273 274 273 274 274 275 275 277 278 279 278 279 279 278 280 280 282 284 285 281 280 283 284 286 289 291 291 291 291 292 292 293 293 294 295 296 297 298 301 302 303 303 304 304 304
281 281 281 280 280 279 279 279 278 278 278 278 278 278 278 278 277 276 276 279 277 277 276 276 276 275 275 275 276 275 276 276 277 276 275 277 277 276 276 274 273 270 273 271 273 273 275 275 276 277 278 278 279 279 282 281 279 284 283 279 278 279 282 286 289 290 290 290 290 291 291 291 292 292 294 295 295 295 296 297 298 298 299 299 300
281 280 280 279 279 279 278 278 278 277 277 277 277 277 277 277 276 275 275 275 276 276 275 276 275 275 275 275 275 276 275 276 275 276 276 276 276 276 275 274 275 271 270 270 272 272 273 276 275 276 277 278 278 279 279 278 281 282 279 278 278 277 281 286 288 288 288 289 289 290 289 290 291 292 293 293 294 295 296 296 297 297 298 299 299
281 280 279 279 279 279 278 277 277 277 276 276 276 276 276 276 276 275 275 275 275 275 276 275 275 275 275 275 275 276 275 275 275 275 275 275 275 275 275 275 275 273 272 271 271 274 273 275 275 275 277 276 278 278 278 278 282 281 278 277 277 277 283 284 285 286 287 288 288 288 290 290 290 290 291 292 293 293 294 295 295 296 296 297 299
280 279 278 278 278 277 277 276 276 276 276 275 275 275 275 275 275 275 274 274 274 274 274 276 276 276 274 274 274 274 275 274 274 275 275 275 275 275 274 275 275 274 273 272 270 273 275 273 274 275 276 276 276 277 277 277 279 280 277 277 277 280 281 280 282 283 285 286 286 287 289 290 290 290 290 290 291 292 293 293 293 294 295 296 297
278 278 277 277 277 277 276 276 275 275 275 274 274 274 274 274 275 275 274 273 273 273 273 274 276 275 274 274 274 274 274 274 274 275 274 274 274 275 274 275 274 274 274 273 271 271 275 274 274 274 275 275 276 275 275 276 278 279 276 276 277 279 277 276 279 281 283 284 285 287 288 289 289 289 289 289 290 290 291 292 292 293 293 294 295
277 277 277 277 276 276 276 276 275 274 274 274 274 274 273 273 274 274 273 273 272 273 273 273 274 274 273 273 273 273 274 274 274 274 274 274 273 274 275 275 274 273 273 272 271 271 273 275 275 274 274 275 274 275 274 274 274 275 277 276 276 275 276 276 276 279 281 283 284 285 286 288 289 288 288 288 288 289 289 290 292 291 292 293 294
277 277 277 277 276 276 275 275 274 274 273 273 273 273 273 272 272 275 273 272 272 272 272 272 272 274 273 273 273 273 273 273 273 273 273 273 273 272 273 274 272 273 273 272 271 271 270 273 273 274 274 275 272 274 273 273 273 275 274 274 275 275 275 275 275 276 280 282 283 284 286 287 288 288 288 287 288 288 289 290 289 289 290 291 291
277 277 277 277 277 275 274 274 274 273 273 272 273 272 272 271 271 271 272 271 271 272 272 272 272 272 272 272 272 272 274 272 272 272 272 272 272 272 272 272 271 271 272 272 271 270 270 271 273 272 272 273 272 272 273 274 274 274 273 273 274 275 276 275 275 275 279 282 283 285 285 286 286 286 287 287 287 287 288 288 288 288 288 289 289
277 277 277 277 276 274 274 273 273 272 272 272 272 272 272 271 271 271 271 271 271 271 272 272 272 272 272 272 272 272 272 271 271 272 272 272 272 271 271 271 271 271 272 272 272 271 270 269 271 271 272 271 272 273 274 274 273 273 273 273 274 274 274 275 275 275 278 282 283 283 284 284 285 285 286 286 287 287 287 288 287 288 288 287 287
276 276 276 275 275 274 273 273 272 272 272 272 272 271 271 271 271 271 271 271 271 271 272 272 275 273 272 272 272 271 272 271 271 271 271 271 271 271 271 271 271 272 272 272 271 271 270 269 269 271 272 272 273 272 273 272 272 272 273 273 273 273 274 274 275 276 279 281 281 281 282 283 284 284 285 286 286 287 287 287 287 287 286 286 286
275 274 274 274 273 273 273 272 271 271 271 270 270 271 271 270 270 270 271 271 272 272 272 272 272 272 272 272 272 272 271 271 271 271 271 271 271 271 271 271 271 271 271 271 271 271 271 270 270 270 272 271 271 272 272 272 271 271 271 272 273 273 273 273 274 275 276 276 276 277 279 280 281 283 284 285 285 286 286 286 286 286 285 284 285
274 273 272 273 273 273 273 272 272 271 271 270 270 270 270 269 270 270 271 272 272 272 273 272 272 272 272 272 272 272 272 271 271 271 271 271 271 271 272 272 272 271 271 271 272 272 271 271 270 271 271 272 272 270 272 273 272 272 271 270 271 273 273 273 273 275 275 276 278 280 280 280 282 281 282 284 284 285 285 285 285 284 283 283 284
273 273 273 273 273 273 273 273 272 271 270 270 269 269 269 270 270 271 271 271 272 272 272 272 272 272 272 272 272 272 272 272 272 272 272 271 272 272 272 272 271 271 271 271 272 271 271 270 270 270 270 270 271 272 273 272 271 271 272 271 269 271 272 273 274 273 275 275 275 276 278 279 279 280 282 282 283 283 284 283 282 282 282 282 284
275 273 272 273 273 273 272 272 271 271 270 270 270 269 269 271 271 271 272 272 271 270 270 270 271 271 271 271 272 272 273 276 278 278 277 277 273 269 269 270 269 271 271 271 271 271 271 270 269 270 270 270 270 270 270 270 270 270 272 273 271 272 273 273 274 275 275 275 275 276 276 276 276 276 277 277 278 280 280 281 281 281 281 283 285
273 273 274 274 273 272 271 270 270 270 270 270 272 276 275 271 271 272 273 272 272 271 270 270 270 271 271 271 272 276 276 277 277 277 277 277 277 275 272 271 271 271 271 271 270 270 270 269 269 269 269 269 270 270 270 271 272 273 272 272 271 272 273 272 273 274 276 276 275 275 276 278 277 276 276 276 277 278 277 277 277 279 282 284 285
273 273 273 272 271 272 271 270 270 271 270 270 275 277 278 277 274 274 273 273 273 273 272 271 270 270 270 270 270 273 274 275 274 275 276 276 276 276 277 277 276 274 271 271 271 271 270 269 270 270 270 270 271 272 272 272 273 273 273 273 272 272 271 270 269 273 277 276 275 275 275 277 277 275 276 276 276 276 276 276 280 282 283 284 285
273 273 272 272 271 271 271 271 270 270 269 274 276 277 278 278 278 275 274 273 273 273 273 272 271 270 270 270 270 271 271 271 272 271 272 274 275 275 275 276 276 276 277 274 272 271 271 271 270 271 271 271 272 272 272 272 272 273 274 273 273 272 272 271 271 271 275 278 275 274 274 277 277 275 275 275 276 276 277 280 282 283 284 284 284
272 272 272 272 271 271 271 270 269 268 268 274 277 278 278 279 279 277 275 274 273 273 273 272 272 272 271 270 269 270 270 273 272 270 269 269 273 274 275 275 276 276 277 278 278 276 275 273 272 272 272 272 272 273 274 274 275 273 273 273 273 273 273 272 273 273 275 277 275 274 273 275 275 274 273 275 275 276 276 279 281 283 283 284 284
272 272 271 271 271 270 270 269 268 267 267 273 276 277 278 279 278 278 275 274 273 273 272 272 272 272 271 270 269 268 268 269 269 269 270 269 268 269 270 271 272 274 276 277 278 278 277 275 274 272 274 275 273 274 275 276 274 273 273 272 273 273 272 272 273 273 274 276 274 273 271 272 274 273 272 274 275 275 275 278 281 282 283 283 283
272 271 271 270 270 269 268 266 266 267 267 274 275 277 278 278 278 278 275 274 273 272 272 272 271 271 270 269 269 268 268 268 269 270 269 269 270 271 272 272 273 273 274 274 274 275 275 275 275 274 275 275 275 275 276 276 275 275 274 272 272 272 271 272 272 273 272 274 273 272 268 271 273 272 273 274 275 274 275 278 280 281 282 282 282
272 271 270 270 269 268 267 265 265 266 266 274 275 276 277 278 278 276 274 273 271 271 271 271 270 269 269 269 268 268 268 268 271 275 275 274 273 273 273 273 274 275 275 277 278 278 276 275 274 274 274 276 278 276 276 275 274 273 273 273 272 271 270 268 267 270 270 273 274 272 270 271 273 272 273 274 274 273 274 274 278 280 281 281 282
271 270 269 269 268 267 265 265 265 265 264 270 274 276 277 278 277 273 273 271 270 269 269 269 270 269 269 269 269 269 269 269 272 275 276 277 275 274 274 273 274 274 274 274 276 277 277 277 278 278 278 278 277 277 277 276 274 273 271 268 267 268 267 266 267 269 269 272 274 275 273 271 274 273 273 274 274 273 273 274 274 278 280 280 281
270 269 269 267 266 265 265 264 265 264 264 267 273 275 276 277 276 272 271 269 268 268 269 269 269 269 270 272 273 271 271 271 274 276 277 277 274 274 274 273 272 271 271 271 271 272 276 276 275 274 273 273 273 274 273 274 274 273 268 265 267 268 266 266 265 266 268 270 272 275 269 269 271 273 271 272 273 273 274 274 275 276 278 278 279
270 268 267 267 266 265 265 264 267 265 263 266 272 274 275 276 276 273 271 269 268 268 268 268 269 270 271 272 273 273 273 274 276 277 278 277 275 274 274 272 270 269 270 270 270 271 269 268 267 266 266 268 267 267 268 272 272 271 269 268 268 267 265 265 265 265 264 266 270 272 267 267 269 270 270 268 267 270 273 274 274 274 274 274 274
Wind_Speed
2 3 2 3 2 2 3 4 4 4 3 4 5 5 4 4 4 3 2 3 4 3 4 4 4 4 5 4 4 4 4 5 4 5 5 4 3 4 7 9 13 15 16 17 19 19 18 17 16 15 15 15 14 14 13 13 13 13 14 14 13 10 11 2 5 5 6 5 5 3 2 2 3 3 3 4 4 4 5 6 7 7 5 6 4
5 5 5 4 4 5 6 4 5 3 5 6 4 4 4 5 4 3 4 4 5 3 3 3 4 4 4 4 4 3 3 4 4 6 5 6 6 4 8 9 11 14 15 17 18 18 19 18 18 17 18 17 17 16 15 15 13 13 13 15 13 13 11 13 9 7 7 7 6 4 3 3 3 3 3 3 4 4 5 6 6 7 8 5 5
6 6 7 7 7 6 6 5 6 6 5 6 5 4 4 5 5 4 3 5 5 4 4 3 3 4 4 5 4 4 5 5 7 6 7 8 7 7 8 11 11 12 15 18 18 18 18 18 18 18 18 18 18 17 17 17 16 15 15 15 15 16 15 15 14 15 11 8 7 5 4 4 4 4 4 4 5 4 5 5 5 6 7 8 7
7 8 7 7 7 7 6 7 7 6 6 6 6 6 6 5 6 5 4 4 6 7 5 6 6 6 5 6 6 8 7 7 7 7 8 8 7 7 7 8 11 12 12 17 20 19 19 19 18 19 19 19 18 18 17 17 17 17 17 17 17 16 16 14 14 14 16 11 8 5 5 5 5 5 5 6 6 6 6 7 7 6 7 7 8
7 9 8 7 7 8 8 8 6 6 6 8 9 8 8 8 8 7 7 7 8 7 6 6 6 6 6 5 7 7 7 7 7 8 8 7 8 7 6 7 7 10 11 13 18 21 21 20 20 20 19 19 18 18 17 17 17 17 17 17 17 18 17 17 17 15 14 14 12 10 8 6 7 7 7 7 7 7 7 6 6 7 8 8 10
8 8 8 7 8 8 8 8 7 7 7 8 9 7 7 8 7 7 7 7 7 7 7 7 6 6 7 5 7 6 7 7 7 7 7 7 7 7 7 7 7 7 7 11 13 21 23 22 21 21 21 20 19 19 18 18 17 17 17 17 18 18 18 18 18 18 16 15 14 12 12 13 13 13 11 9 8 8 8 7 7 8 9 11 12
8 8 9 8 8 8 9 7 6 7 8 7 8 8 9 9 7 7 7 7 6 7 6 5 5 7 7 6 7 6 7 7 7 7 8 7 7 7 7 7 7 7 7 7 10 17 22 22 22 22 22 21 21 20 20 19 18 17 18 18 18 18 18 18 18 17 18 18 17 16 15 15 14 13 14 13 11 10 10 9 9 7 9 11 10
8 7 9 8 8 8 7 7 7 7 7 7 9 9 8 9 9 7 7 8 7 7 5 6 6 6 6 6 6 7 7 6 7 8 7 8 8 8 8 8 8 7 8 7 7 11 19 20 21 21 23 22 21 21 21 21 20 19 19 18 17 17 18 18 17 17 17 17 17 17 17 16 16 16 15 15 15 13 13 13 15 16 12 12 13
8 7 8 8 8 8 8 8 7 7 8 8 9 7 8 8 8 8 7 6 7 6 6 6 5 4 4 5 6 7 7 6 7 7 8 9 9 9 9 8 8 9 8 8 7 8 12 19 19 19 19 21 21 21 21 22 21 20 20 19 19 19 18 18 17 17 17 16 16 16 17 17 17 16 17 16 14 15 16 18 19 18 19 15 11
9 8 9 8 8 9 8 8 7 8 8 8 8 7 7 7 9 9 8 7 7 6 6 5 3 5 6 6 8 7 7 7 7 7 8 8 9 9 8 7 8 7 9 8 7 8 9 12 16 16 16 19 21 22 22 22 22 21 21 20 20 19 19 18 18 18 17 17 17 17 16 17 17 17 17 17 17 17 16 15 16 17 21 21 16
10 9 9 9 9 9 9 8 8 8 9 8 8 6 7 8 9 7 8 7 6 5 4 3 6 6 7 9 7 8 7 7 7 6 7 7 8 7 8 9 7 7 9 8 7 7 9 10 9 9 10 17 19 20 21 23 22 21 21 20 20 20 19 19 20 21 20 20 19 19 19 19 18 18 18 18 18 18 18 17 18 18 18 17 19
9 9 10 9 9 9 9 8 8 8 9 10 8 7 7 8 10 8 6 7 9 8 7 6 7 7 8 8 7 8 9 8 8 7 7 7 7 8 9 7 8 7 8 9 7 7 9 10 9 9 8 11 17 18 18 20 19 22 21 21 20 20 21 22 22 22 22 22 21 21 20 20 19 19 19 19 19 19 19 19 19 18 18 20 20
9 9 10 10 9 8 9 9 8 9 9 9 8 9 8 6 5 6 9 11 12 10 9 4 6 6 5 5 7 5 7 9 9 9 8 6 6 8 7 8 8 8 7 8 8 7 8 10 9 8 9 8 10 13 16 17 18 23 22 20 20 20 20 20 21 21 22 22 21 21 21 21 22 21 21 20 19 19 19 20 20 20 20 19 19
9 9 10 9 9 9 9 8 8 9 9 8 9 10 10 9 4 8 7 10 9 9 10 4 6 2 2 2 3 3 5 7 8 6 6 6 6 8 7 8 8 7 7 8 7 7 7 8 9 8 8 8 8 8 9 10 13 22 23 19 20 20 21 21 22 23 24 23 23 22 22 22 22 22 21 21 20 20 19 20 20 21 21 21 20
9 9 9 9 9 9 9 8 8 7 10 11 10 10 8 8 7 6 6 6 7 8 10 7 2 0 0 4 2 1 4 7 4 6 7 5 7 8 7 8 10 8 7 8 8 7 7 8 9 8 8 8 8 7 7 10 14 19 22 19 18 21 21 21 23 24 25 25 24 24 23 23 22 23 23 22 21 20 20 20 20 20 20 20 21
9 9 9 9 9 9 8 9 9 8 8 9 9 9 8 8 8 8 5 8 6 8 8 9 7 2 2 2 0 2 3 4 5 4 4 5 9 8 7 10 9 8 8 9 8 7 8 8 8 9 7 7 7 6 7 9 14 16 17 17 15 21 22 22 24 25 26 26 25 25 25 24 24 23 23 23 22 21 21 20 20 20 19 20 20
9 9 9 9 9 9 9 8 8 7 7 9 9 8 7 7 8 8 7 5 6 4 7 8 10 8 3 3 3 5 0 3 4 3 5 6 8 7 9 10 9 7 8 8 7 8 7 8 8 8 7 7 7 6 6 9 9 9 10 15 18 19 21 23 24 26 27 26 26 26 25 25 24 24 24 23 23 23 22 22 21 21 21 21 20
8 8 8 8 9 9 8 9 8 8 8 8 7 8 9 9 7 6 8 6 6 7 6 5 7 9 9 5 2 3 0 2 5 4 6 1 5 6 7 8 7 7 7 7 7 9 7 7 8 8 7 6 6 6 5 8 9 8 8 12 21 20 22 24 24 24 25 25 26 26 26 25 25 25 24 24 24 23 23 23 22 22 22 21 21
8 8 8 8 8 8 8 8 8 8 7 8 9 8 7 6 6 8 6 5 6 9 7 5 4 7 6 6 7 5 3 4 1 2 4 5 4 5 4 7 7 5 8 7 7 8 8 6 8 8 7 6 6 6 6 7 8 9 14 20 22 23 23 22 23 24 24 25 26 26 26 26 25 25 25 25 24 24 24 23 23 23 22 22 21
8 8 8 8 8 8 8 8 9 7 8 8 8 6 7 7 7 6 7 7 7 7 6 7 6 3 6 8 6 4 5 6 2 1 1 4 6 2 3 6 7 6 7 7 9 9 9 8 7 8 7 7 6 7 6 7 8 9 9 21 22 23 24 24 23 23 24 24 25 25 26 26 26 25 25 25 25 25 25 24 24 23 23 22 22
8 8 8 8 7 8 8 8 9 8 7 7 7 7 8 7 8 9 8 7 6 5 7 6 6 4 3 5 4 5 4 4 3 3 3 2 4 5 8 3 4 4 6 5 8 8 8 6 6 7 7 7 7 7 8 9 9 8 10 21 23 24 24 25 24 23 23 24 25 26 26 26 26 26 26 26 26 26 25 25 24 24 24 23 22
7 7 8 7 7 7 8 8 8 7 7 7 7 8 7 7 6 6 6 7 5 6 6 5 5 4 5 3 6 4 5 5 6 7 3 3 2 6 5 9 9 6 6 5 8 9 8 6 6 6 7 7 7 7 7 8 8 8 13 23 24 24 24 24 24 24 24 25 25 25 26 26 26 27 27 27 27 26 25 25 25 24 24 24 24
6 7 7 6 7 7 7 7 7 7 7 7 6 6 5 6 5 6 7 7 6 6 6 5 5 6 6 7 6 5 2 2 1 3 2 1 3 4 4 3 6 9 3 4 7 8 7 4 4 7 7 6 5 6 7 9 11 12 17 19 22 24 25 25 24 24 24 25 26 26 26 26 26 27 27 27 27 26 26 25 25 25 24 24 24
6 6 6 5 6 7 7 7 7 7 7 5 5 5 5 5 6 6 6 5 5 6 6 7 6 6 5 5 5 3 4 4 1 3 3 2 0 4 5 5 4 4 6 4 7 4 7 5 3 6 7 5 4 5 8 8 7 13 12 16 21 21 21 22 25 26 26 26 26 26 27 28 28 27 27 26 26 26 26 26 26 26 25 25 24
5 6 5 5 6 7 7 7 6 6 5 6 5 5 5 6 6 6 6 6 5 5 6 5 5 5 4 3 4 5 4 1 4 3 2 2 2 4 3 2 4 6 3 3 3 5 4 1 4 4 5 3 6 7 6 6 5 10 15 9 16 17 19 22 24 26 27 27 27 27 26 26 26 26 26 26 26 26 27 26 26 26 26 25 25
6 6 5 5 6 6 6 6 5 5 5 6 5 5 5 6 5 6 6 4 5 5 5 4 5 4 4 5 4 5 4 4 4 5 4 4 4 3 5 3 3 5 3 2 3 5 5 2 4 4 3 3 4 4 5 6 6 11 16 8 8 16 18 19 21 22 23 25 27 27 27 26 26 26 26 26 26 27 27 27 27 26 26 26 26
6 5 5 6 6 6 6 7 5 5 5 5 6 5 5 6 6 5 5 4 4 5 5 5 5 5 5 3 4 5 4 4 5 5 3 2 2 2 3 7 5 2 4 3 3 2 6 5 3 7 3 3 5 5 6 6 7 15 13 6 6 12 17 20 21 22 22 23 23 25 27 27 27 27 26 26 26 26 27 27 27 27 27 27 27
5 6 4 6 6 6 6 6 5 5 5 5 5 5 5 6 6 5 5 3 4 5 4 5 4 4 4 3 4 3 3 3 4 3 4 2 2 3 2 2 4 7 6 4 3 5 3 2 4 1 7 7 7 8 9 9 7 15 10 7 7 8 16 21 23 23 22 22 22 22 23 26 28 27 26 25 25 25 25 26 26 26 26 26 26
6 4 6 5 5 5 6 5 5 5 5 5 5 4 5 5 5 4 4 3 4 3 3 4 3 3 3 3 2 2 3 2 4 5 4 4 3 2 2 2 1 1 4 5 8 3 4 1 1 4 5 9 10 7 8 9 11 12 8 9 10 9 16 23 24 23 22 23 22 22 22 22 23 26 27 26 27 27 27 27 27 27 27 27 28
5 5 5 6 5 5 6 6 5 5 4 4 4 4 5 5 4 4 2 3 3 3 2 3 3 3 3 4 3 3 2 3 3 3 3 3 3 4 3 3 1 0 3 5 9 5 6 2 2 4 6 6 7 9 7 10 14 13 10 10 10 10 21 24 23 23 23 24 23 22 22 22 22 22 23 26 27 27 27 27 27 27 28 28 28
6 6 6 6 6 5 5 5 5 4 4 4 4 4 4 5 4 4 3 3 3 3 1 2 1 3 3 3 3 3 2 2 2 3 3 3 4 3 4 2 4 1 3 3 7 5 2 6 3 2 6 6 5 8 8 5 9 15 13 12 10 17 22 16 22 23 24 25 24 23 23 23 23 23 23 22 23 27 28 27 27 27 27 27 27
5 5 5 5 6 6 5 5 5 4 3 3 3 3 4 4 4 5 3 3 3 3 2 2 2 3 3 3 3 2 3 2 2 2 3 3 2 3 3 2 2 3 2 3 6 14 12 7 9 4 4 7 7 8 9 6 7 14 10 10 13 18 11 10 15 21 23 24 25 24 25 24 23 23 23 23 23 23 24 27 27 27 27 27 26
6 6 5 5 5 6 6 5 4 4 3 3 3 3 4 4 3 3 3 3 3 2 2 3 2 2 3 2 2 3 2 2 2 3 3 3 3 3 3 2 2 2 2 3 7 12 14 6 4 6 4 8 8 4 8 10 9 9 9 9 11 11 10 10 10 16 21 23 24 25 25 25 24 24 23 23 22 23 23 23 26 27 25 25 25
5 6 6 5 5 6 5 5 4 4 3 3 3 3 4 4 3 3 3 3 3 2 2 2 3 2 2 2 3 3 3 2 3 3 3 4 3 3 3 2 2 2 3 3 6 8 14 15 9 4 6 6 11 6 8 11 11 10 11 9 8 9 10 10 10 10 20 22 23 24 24 25 25 25 25 23 23 23 24 25 24 24 26 26 26
5 5 6 6 6 5 5 5 4 4 3 3 3 3 3 4 3 3 3 2 2 1 2 2 2 1 2 2 3 2 2 3 3 3 3 3 3 3 2 2 2 2 2 3 5 8 11 14 11 8 7 8 9 12 10 8 9 10 11 11 10 9 9 10 10 8 16 23 24 23 23 24 25 25 25 24 24 24 25 25 25 24 23 25 28
7 6 6 7 6 5 5 4 4 4 3 2 2 2 3 3 3 2 2 2 1 1 1 1 2 2 1 2 3 2 2 3 3 3 3 3 3 2 2 2 2 3 3 2 3 6 9 12 14 8 8 10 11 8 7 9 9 10 9 11 10 9 10 10 10 9 12 22 24 24 24 23 24 24 24 24 25 26 26 26 25 24 24 24 25
8 8 6 6 6 5 5 4 4 3 3 2 1 1 2 3 3 2 1 1 1 1 1 1 2 0 1 1 3 2 2 3 3 3 3 3 3 1 2 2 2 3 3 3 5 5 8 11 13 9 7 8 8 9 7 9 11 10 10 10 10 10 10 9 8 9 16 21 20 22 23 23 23 23 23 24 25 26 27 27 26 25 24 25 24
7 5 6 4 5 5 5 4 3 3 3 3 1 1 1 2 2 2 1 0 0 0 1 1 2 2 2 3 3 3 3 3 4 3 3 4 3 2 3 3 3 3 3 4 5 5 7 9 9 12 8 8 11 9 7 8 10 13 12 10 9 8 9 9 8 8 8 8 7 9 13 16 18 23 24 23 24 26 28 28 26 25 25 24 25
7 6 5 5 4 5 4 4 3 3 3 2 2 1 1 2 1 1 2 1 1 1 1 2 2 2 2 2 3 3 3 3 4 4 4 4 3 3 4 4 3 3 4 5 7 9 9 10 11 10 11 10 9 12 10 10 11 10 12 13 11 8 8 9 11 8 7 9 12 17 17 17 20 17 21 24 24 26 26 26 26 26 25 25 24
7 7 7 6 4 5 4 4 3 3 2 1 1 2 2 3 2 2 1 1 1 1 2 2 2 2 3 3 3 3 3 4 4 5 4 5 4 4 3 2 3 4 5 5 7 9 9 10 10 11 10 11 10 11 13 11 10 10 7 9 14 14 13 10 9 11 9 9 11 9 10 12 12 15 20 20 21 23 24 23 23 25 26 25 23
6 6 5 6 6 5 3 3 2 2 3 3 2 3 3 3 3 1 0 0 1 2 2 3 3 3 3 3 3 3 4 7 9 8 7 7 4 3 3 2 3 4 5 5 5 7 8 9 11 10 12 11 11 10 11 11 11 12 13 10 12 13 13 13 11 9 9 10 10 10 9 8 9 9 9 9 10 15 14 18 17 21 23 24 25
6 6 6 6 5 5 5 3 3 2 3 2 4 7 6 4 2 2 1 1 1 2 2 3 3 3 3 3 3 7 10 9 9 10 10 11 10 7 4 3 3 4 4 5 5 6 7 9 9 10 10 10 9 8 10 12 12 13 12 12 12 12 14 14 12 7 7 9 10 11 10 8 9 9 8 10 9 10 9 8 9 15 21 26 26
8 7 7 7 5 5 5 4 5 4 4 3 8 8 7 8 5 3 3 3 3 3 3 3 4 4 3 3 3 5 6 6 4 9 10 10 10 11 12 11 9 6 5 6 6 6 7 9 9 8 9 11 12 9 12 12 12 11 10 11 11 12 12 13 16 10 3 6 12 13 13 8 8 10 8 8 9 9 9 9 19 24 25 26 26
7 6 7 7 6 5 5 5 5 5 4 7 10 8 8 8 7 4 3 3 4 4 4 4 4 4 3 3 3 3 3 3 4 3 5 9 12 12 12 11 11 12 12 9 8 8 8 9 10 9 8 10 11 8 9 12 12 12 13 12 14 12 17 13 13 12 8 8 10 13 16 8 6 8 9 8 9 8 10 17 24 25 25 25 26
7 7 7 7 7 5 6 6 5 4 4 8 9 8 8 9 8 7 4 4 4 5 5 5 5 4 3 4 3 3 3 7 6 4 4 5 8 12 12 12 13 14 14 16 16 12 10 11 12 13 10 11 13 11 11 14 15 17 14 13 11 14 11 15 10 14 11 10 11 13 15 8 5 9 10 8 7 8 9 14 22 25 25 25 25
8 7 6 7 6 6 6 6 5 4 5 8 9 8 8 9 9 7 3 5 5 6 6 6 5 5 3 4 3 4 4 4 4 6 5 5 6 7 7 8 8 11 15 18 19 20 17 12 12 13 13 13 13 15 15 15 16 13 12 12 13 13 14 13 17 16 14 9 10 11 16 9 4 8 10 9 7 7 7 14 24 24 25 25 24
10 10 9 8 7 6 5 5 5 6 6 9 9 9 9 9 9 8 3 5 5 6 6 5 4 3 3 4 4 5 5 5 5 7 6 6 7 7 8 8 8 8 9 9 9 9 8 7 9 10 13 11 10 11 11 11 13 14 13 15 16 16 15 14 10 9 9 7 11 10 14 10 5 9 10 9 8 7 6 12 21 24 24 24 23
4 4 4 5 7 7 6 5 5 6 6 9 9 9 10 9 10 4 3 4 6 6 6 4 3 3 4 5 5 5 5 5 9 14 11 7 7 9 9 8 8 8 7 6 11 14 14 14 13 13 12 14 20 19 18 16 14 13 13 12 11 10 11 10 10 8 8 7 8 10 11 10 6 9 10 8 7 9 9 8 15 22 22 21 19
8 8 8 8 7 7 7 6 7 6 5 7 9 10 9 10 7 2 3 3 4 4 5 4 4 4 4 4 5 6 6 6 11 13 13 13 8 7 8 10 8 4 4 5 11 17 20 20 19 19 22 24 25 25 23 24 18 15 11 11 10 10 10 11 10 8 9 9 8 11 11 11 6 9 10 8 7 10 11 10 8 13 17 17 23
10 8 7 6 6 6 8 8 8 7 6 6 9 9 10 10 8 5 4 3 5 6 5 5 4 4 5 10 9 6 6 7 12 14 14 11 6 7 9 7 6 7 7 7 7 9 13 13 15 18 19 19 20 20 20 20 21 16 9 9 10 9 10 11 13 12 12 10 10 9 10 9 11 9 11 9 9 6 7 7 9 9 15 19 24
6 5 6 6 6 6 7 7 7 7 6 6 8 9 11 10 8 4 5 5 6 5 5 5 5 4 5 6 11 10 9 10 14 13 14 10 6 6 5 5 6 8 8 9 9 6 6 7 7 9 9 12 11 10 12 19 18 15 10 10 9 10 11 11 12 13 12 8 8 12 11 9 9 9 11 12 12 8 9 10 10 11 10 8 10
Wind_Direction
51 123 109 116 116 120 128 116 117 115 117 100 119 141 127 123 105 89 67 69 61 49 68 64 63 61 59 35 35 32 28 31 26 26 38 37 23 19 32 29 33 29 25 26 23 19 18 17 16 16 15 14 9 6 10 10 8 6 356 2 352 346 345 233 207 237 246 257 261 261 287 326 347 351 346 343 355 351 341 339 342 340 349 337 345
38 48 73 49 67 53 50 34 55 59 102 109 123 112 112 101 105 95 68 57 57 35 61 67 69 63 64 50 31 28 50 49 35 33 32 35 23 13 19 32 31 30 33 32 26 23 21 20 19 18 18 15 13 11 11 10 7 3 357 350 354 357 352 4 336 279 238 243 256 262 284 311 323 309 327 337 339 336 338 345 338 339 332 324 333
53 57 64 59 48 50 52 48 45 33 48 73 63 68 67 72 78 76 74 65 51 65 54 59 39 54 45 36 9 19 20 30 42 35 37 31 36 31 23 28 25 26 31 31 28 29 29 27 27 24 21 18 15 12 11 10 10 6 1 357 354 352 359 357 355 2 339 252 254 247 257 280 297 298 299 303 317 318 312 309 310 324 327 326 322
70 64 65 64 64 54 50 46 35 27 39 53 53 48 49 44 46 52 47 48 44 33 33 54 40 27 35 34 27 31 26 46 47 43 45 41 39 38 35 31 25 27 27 26 25 26 27 28 26 24 22 19 17 16 14 13 10 7 4 2 360 359 356 356 360 358 4 337 261 260 264 273 284 290 292 299 304 304 307 314 312 312 309 309 312
65 77 73 68 68 64 54 48 43 31 45 58 59 48 45 40 34 39 43 45 37 26 28 41 44 34 43 35 45 45 49 52 47 50 47 47 42 38 38 37 35 29 23 22 22 27 25 25 25 21 18 16 15 15 15 14 13 10 6 4 4 3 1 1 0 357 1 6 345 323 313 297 293 291 293 289 293 294 297 298 303 309 310 304 303
62 63 72 72 66 65 62 54 44 43 47 54 61 54 52 45 30 44 38 43 40 29 27 22 13 27 31 23 55 56 53 53 53 55 56 51 44 41 34 37 36 33 29 24 21 28 27 26 25 21 18 15 14 13 12 13 13 10 11 11 8 5 5 5 1 1 1 358 356 350 342 340 335 325 304 292 286 284 288 286 281 297 311 316 314
54 69 65 64 62 63 60 55 51 61 62 55 69 60 58 51 36 44 42 39 36 35 28 23 16 19 14 28 59 62 56 61 57 58 57 50 43 34 29 30 28 30 27 27 28 27 25 23 23 21 18 17 16 15 13 13 12 12 10 8 6 4 7 6 3 2 3 1 356 352 346 340 336 332 325 302 286 286 281 273 276 274 296 297 289
59 64 77 71 71 67 64 59 56 62 64 66 68 64 62 58 44 41 46 33 27 25 20 20 15 15 9 51 61 64 61 58 61 59 55 54 43 36 31 28 26 25 26 24 23 23 22 19 18 18 16 15 17 17 17 16 13 9 7 6 4 6 8 6 5 6 5 1 358 353 350 346 341 337 331 326 309 287 277 275 273 303 303 288 293
69 68 77 72 74 73 62 58 51 57 57 55 61 60 64 66 56 48 54 48 35 20 20 23 12 21 29 51 55 54 52 53 53 60 60 59 50 41 36 30 27 27 27 27 22 16 13 14 14 12 9 9 14 16 18 16 12 10 10 10 8 8 7 4 4 4 3 2 359 355 350 345 343 339 335 331 327 318 309 302 298 297 294 271 265
65 67 73 71 68 68 61 52 53 56 61 61 63 66 67 66 64 48 44 46 36 25 14 7 24 40 50 57 50 54 52 52 59 65 69 66 57 47 35 33 30 25 24 28 24 19 16 9 8 9 4 4 8 12 15 15 11 10 11 11 10 10 9 7 5 4 2 1 359 358 356 352 348 345 341 336 330 323 316 308 301 299 295 293 296
61 60 68 66 64 60 59 50 56 61 62 59 54 49 58 57 63 54 49 49 46 33 16 6 47 67 65 60 59 53 44 43 49 66 72 71 62 49 39 30 29 25 23 24 24 21 17 15 9 6 358 357 2 3 9 14 9 9 11 10 10 12 12 13 12 11 7 4 2 360 358 356 353 348 344 341 336 331 326 320 316 312 309 305 308
60 62 66 67 67 62 61 52 56 65 63 58 47 43 44 53 49 50 46 48 39 28 23 29 65 67 78 66 58 61 53 51 48 40 44 51 54 46 39 25 31 20 22 20 21 19 16 12 8 3 360 353 356 360 358 7 3 3 8 7 7 10 12 16 16 14 11 7 5 2 0 357 354 350 346 342 339 336 332 328 324 318 313 312 309
54 60 65 67 67 66 65 58 57 64 66 62 55 50 43 45 53 45 46 45 30 18 15 33 67 62 44 67 60 51 64 59 54 42 39 44 44 47 34 32 25 24 16 17 18 16 13 8 2 2 360 356 352 353 357 1 4 1 0 4 4 6 6 9 10 9 6 3 1 0 359 356 353 350 345 342 338 337 334 331 329 326 323 316 311
56 61 63 64 67 65 61 59 57 61 66 63 57 51 47 42 27 59 35 58 47 19 8 46 29 90 88 40 11 9 48 60 52 38 41 40 42 44 34 29 22 20 16 17 14 13 9 2 356 359 358 358 354 357 356 3 2 1 359 358 2 1 1 0 2 3 0 356 353 349 348 348 346 345 342 339 337 335 333 331 328 327 325 323 319
57 59 66 62 67 68 62 61 57 60 64 55 52 50 46 46 40 67 60 41 60 29 29 37 81 332 68 80 356 355 330 11 21 29 25 42 43 37 28 26 18 21 14 13 8 6 1 356 353 354 357 358 356 356 357 8 5 359 354 350 352 360 359 357 359 358 356 352 349 346 344 343 342 341 339 337 335 333 331 329 327 326 323 321 319
58 62 67 65 66 70 70 64 59 56 70 71 58 55 46 43 44 43 59 67 35 36 24 25 46 67 31 84 135 98 357 342 341 305 351 35 43 33 29 21 13 12 13 11 3 3 353 350 352 343 355 356 357 358 353 14 6 360 351 348 342 6 0 356 354 352 350 347 345 343 340 338 338 336 335 335 334 333 331 330 328 324 322 321 318
64 65 69 70 66 68 70 68 69 59 65 69 64 58 55 51 46 55 43 86 63 50 29 31 38 30 120 65 11 34 213 269 322 293 356 18 22 34 31 21 7 8 12 359 358 355 349 348 346 341 344 359 356 358 346 15 7 358 351 346 355 359 357 351 349 348 346 344 342 341 339 337 336 335 334 333 332 332 330 329 327 325 323 320 317
65 67 69 72 72 70 73 73 69 63 61 69 68 59 48 50 38 59 56 35 93 60 40 14 47 43 41 65 130 155 243 290 58 319 345 30 28 22 39 20 358 2 4 355 356 346 345 343 343 336 335 348 354 358 346 13 8 355 350 342 346 349 352 351 348 345 342 341 340 338 337 336 336 335 335 333 332 330 329 327 325 323 322 320 318
64 65 67 70 74 70 71 71 70 68 64 67 62 60 58 52 45 55 53 51 56 71 52 348 6 36 38 63 61 51 80 84 16 310 350 321 5 9 19 12 356 1 358 348 344 345 334 342 338 334 331 332 353 353 349 7 2 358 351 345 346 347 346 344 343 340 339 338 336 335 334 334 334 334 334 333 331 330 328 326 324 322 320 318 317
72 65 64 65 70 68 69 70 70 62 66 64 65 58 61 50 55 59 60 53 58 77 69 34 71 359 9 30 37 67 77 79 82 151 240 320 317 323 79 14 356 350 354 343 344 339 330 337 339 337 335 337 352 352 350 359 360 2 354 351 348 343 341 339 338 337 336 336 334 333 332 331 331 331 331 331 330 328 327 324 323 322 320 318 317
63 68 64 67 67 73 70 70 69 64 67 70 66 64 64 62 51 51 55 54 55 66 77 59 59 47 24 14 28 34 36 79 72 62 76 20 304 354 327 0 356 321 350 332 336 327 321 325 331 338 343 347 355 355 358 5 7 3 353 349 344 340 338 337 336 335 335 333 331 330 328 328 328 328 328 328 326 325 324 322 321 320 320 319 317
65 64 69 66 71 72 74 73 74 72 68 70 67 62 58 62 62 68 65 70 51 64 78 76 75 59 64 60 49 7 26 11 18 17 13 72 24 312 326 334 339 314 324 339 326 317 312 327 340 341 343 350 0 5 3 10 1 355 348 351 347 342 338 335 334 333 332 330 328 327 326 325 325 325 325 325 323 322 321 321 320 320 319 317 316
78 69 68 73 76 73 77 77 72 70 70 66 69 76 71 74 70 70 65 68 62 65 67 64 69 58 50 57 68 73 101 90 352 31 100 323 351 285 306 291 283 307 284 331 308 302 301 326 340 342 335 354 2 6 6 4 359 348 358 357 348 341 335 332 331 332 331 329 327 326 325 325 324 322 321 321 321 320 320 320 320 319 317 315 315
78 80 71 71 81 76 73 74 70 71 71 76 74 80 78 77 70 65 62 61 59 62 60 53 45 54 51 54 65 77 62 79 104 95 65 322 10 296 311 302 288 236 285 299 285 291 303 322 332 345 326 2 354 3 13 359 340 349 2 351 343 337 336 337 335 332 328 325 324 324 323 322 321 319 318 318 318 318 319 320 319 318 316 315 314
97 96 85 81 83 84 76 77 77 70 78 76 71 71 76 74 71 69 66 59 59 65 68 64 63 57 51 44 63 47 42 22 74 59 37 66 45 347 293 307 290 310 293 339 320 306 285 285 8 318 332 353 1 14 356 345 344 351 354 339 339 343 342 338 333 327 323 323 323 323 322 321 320 319 318 318 317 318 318 317 317 317 316 314 314
119 103 110 97 85 89 92 85 82 81 78 77 75 72 73 73 68 65 58 52 58 64 65 57 51 52 56 46 36 41 28 39 60 56 42 37 12 8 325 313 280 287 296 337 307 3 313 335 324 312 321 13 17 2 355 345 344 341 342 344 347 343 338 333 327 323 323 322 321 321 320 320 320 319 318 317 317 317 316 316 315 315 314 314 314
112 115 104 96 92 86 82 83 80 78 75 72 68 71 71 72 66 62 50 41 54 75 64 64 52 47 42 50 45 38 34 35 53 45 64 48 68 321 27 346 331 279 312 302 291 254 260 301 332 321 341 6 1 358 345 345 335 335 343 348 335 333 334 330 326 324 322 320 319 318 319 319 319 318 317 317 316 315 315 314 314 313 313 313 312
101 102 92 92 92 90 85 86 83 78 72 71 68 74 79 80 69 63 56 25 64 76 83 75 71 67 59 37 52 28 40 39 49 42 29 22 22 13 64 49 344 326 319 289 315 296 272 311 308 303 22 354 351 348 338 342 338 336 348 340 334 329 329 327 327 326 324 321 319 317 317 317 317 317 316 315 314 313 312 311 311 311 311 310 311
104 98 99 92 94 97 94 86 79 75 72 66 72 77 82 89 87 75 61 46 73 79 80 82 87 76 59 60 64 50 23 35 35 29 16 15 16 24 61 100 47 316 314 311 302 285 298 10 298 296 40 354 335 344 341 334 333 339 343 340 333 329 324 327 328 326 324 322 319 319 316 313 312 314 316 317 317 316 314 313 312 311 310 310 309
110 106 104 105 99 95 95 90 83 79 80 76 77 85 90 91 93 82 88 73 76 66 59 93 82 79 58 36 37 24 1 41 32 16 19 9 6 1 2 352 44 157 268 307 297 285 270 287 170 303 336 341 331 331 343 328 330 339 338 333 329 322 323 326 325 323 323 321 321 320 317 316 316 317 316 316 316 314 313 313 312 310 309 307 306
116 116 113 112 109 101 101 97 90 87 79 78 85 89 100 105 99 90 63 68 73 63 19 61 41 79 65 33 19 8 4 19 21 17 2 7 347 348 334 360 333 310 265 272 302 273 99 320 310 47 313 324 341 325 320 327 334 338 333 325 321 320 322 319 319 321 321 321 320 319 319 319 319 317 316 315 315 317 316 314 313 312 310 310 309
124 122 121 124 119 115 109 109 103 100 95 88 91 101 96 101 106 90 76 72 60 59 9 32 49 80 72 43 360 355 336 16 9 5 352 334 338 330 320 321 310 291 272 269 266 280 295 301 302 322 321 321 328 321 317 331 333 328 318 318 317 319 317 311 313 317 318 319 319 320 321 321 320 320 321 320 318 315 314 314 314 313 312 311 309
130 126 127 128 126 124 123 121 123 123 120 105 99 101 97 91 85 93 75 78 65 30 46 16 25 62 62 45 352 337 336 360 342 355 347 334 334 329 317 332 316 303 308 278 283 288 293 285 292 311 334 325 317 338 328 323 324 317 314 311 310 311 310 310 310 311 314 315 317 318 319 320 321 322 322 321 320 319 318 316 316 316 315 314 312
128 133 137 136 131 130 128 129 128 131 124 115 105 95 91 88 76 78 73 70 71 35 54 27 360 25 52 32 352 341 343 3 355 351 339 333 331 330 315 339 307 300 295 287 281 284 291 305 309 324 325 331 313 337 331 322 321 318 313 311 306 303 305 305 305 306 309 312 314 316 318 319 320 320 321 320 320 321 322 320 317 314 315 315 314
136 146 148 141 137 133 128 131 128 119 109 95 102 99 104 108 95 72 79 85 81 56 29 353 344 2 24 7 333 343 341 354 332 322 323 315 315 311 305 321 335 308 301 281 290 291 293 294 305 322 329 328 316 319 324 317 310 311 310 311 309 304 298 298 298 297 303 310 313 316 318 318 318 318 319 319 318 320 320 319 317 315 313 314 314
148 150 139 137 135 135 129 122 112 108 100 98 87 113 126 115 108 98 74 64 68 47 46 332 334 347 341 349 310 328 324 326 302 303 298 300 298 301 321 316 344 310 300 292 283 290 296 297 303 324 324 321 312 311 313 310 313 312 308 303 299 292 293 293 293 294 297 305 310 313 315 315 315 315 316 316 318 319 319 319 318 315 315 313 312
147 135 133 134 133 124 123 125 130 127 132 133 117 106 99 113 119 110 72 75 28 355 330 305 307 331 297 274 274 286 296 292 291 289 287 297 290 298 305 304 308 289 291 288 281 276 284 287 297 307 312 302 301 306 318 319 316 309 303 300 299 297 291 285 290 291 296 301 301 304 307 309 312 312 312 314 315 317 318 318 317 316 316 316 314
150 145 137 134 131 128 126 136 139 142 135 133 168 177 124 96 91 87 89 34 328 315 322 304 281 273 259 265 267 268 276 277 277 278 280 279 278 278 294 291 282 274 274 279 273 272 275 281 293 306 316 319 315 312 319 318 317 314 310 302 295 291 295 297 289 291 291 289 295 290 292 298 299 307 312 312 312 314 315 315 315 315 317 317 314
147 141 135 131 128 129 139 137 149 137 129 138 166 164 132 111 104 88 54 71 56 2 310 293 297 273 264 260 267 267 266 266 271 274 274 273 264 266 269 278 268 271 285 289 306 304 299 299 301 301 306 312 313 312 317 311 301 304 305 309 306 300 291 292 296 288 286 287 282 286 288 295 302 305 306 307 308 310 311 311 313 313 314 314 313
145 142 147 145 139 132 136 150 141 126 129 156 185 162 130 110 101 86 94 77 320 316 296 297 296 289 282 283 275 270 262 265 264 268 264 266 259 263 263 255 265 278 289 293 303 303 302 301 300 306 306 307 308 301 302 306 307 300 293 303 304 306 306 296 288 296 293 286 291 283 276 281 281 289 296 298 299 301 305 307 307 308 310 311 310
138 143 146 145 140 141 136 140 131 126 154 200 209 172 137 112 110 99 63 302 301 280 293 295 298 299 296 291 286 279 268 265 273 282 284 288 285 289 276 239 263 270 281 287 285 291 292 294 297 299 298 296 296 298 302 306 307 303 305 298 290 287 291 296 290 281 284 288 286 283 280 274 286 287 291 291 292 296 297 299 301 302 300 306 310
142 145 146 143 145 149 153 156 157 176 192 201 220 203 168 145 128 140 183 247 256 262 271 283 288 287 282 275 281 294 297 298 299 299 298 296 293 291 286 280 273 271 278 290 292 287 287 288 286 288 285 283 289 285 291 290 288 291 292 291 287 289 294 290 288 279 280 280 284 286 285 289 288 288 286 288 289 296 298 297 291 296 303 309 311
153 153 148 152 158 157 162 166 179 193 201 207 221 210 190 172 157 177 206 234 248 256 251 253 260 266 273 275 277 291 296 301 306 299 298 301 302 298 295 294 294 295 297 290 282 278 279 279 280 273 274 281 280 272 282 289 291 285 285 285 279 287 287 295 297 306 195 290 298 295 291 290 291 289 283 282 290 294 298 290 295 304 308 310 311
161 154 156 162 157 166 169 173 191 199 201 219 224 214 206 206 200 190 210 225 239 245 249 247 246 250 259 273 276 269 267 272 277 294 310 305 299 296 293 292 291 290 285 282 286 286 279 279 284 281 277 275 277 270 277 284 289 288 289 287 290 287 293 286 292 294 312 314 303 299 292 288 279 281 283 280 286 289 289 298 304 306 307 309 312
157 165 161 160 174 176 179 187 195 202 202 228 227 220 216 217 218 216 214 226 235 243 245 251 254 252 252 260 265 266 270 289 292 290 282 277 286 289 289 287 284 280 287 291 289 285 287 287 285 285 278 282 287 288 293 293 295 294 293 290 287 287 282 288 289 301 315 327 303 291 288 298 300 289 285 286 280 286 287 295 301 305 308 310 310
167 159 164 168 170 185 191 190 197 199 208 227 226 229 226 224 224 223 198 229 235 239 242 246 249 252 255 255 263 275 270 268 272 271 271 269 263 261 259 257 254 261 266 272 277 282 285 283 284 286 289 291 292 297 297 294 293 291 294 291 300 301 302 307 311 308 307 309 296 298 288 300 302 291 286 290 282 276 280 293 304 307 308 308 309
176 178 177 177 184 184 189 187 189 207 218 223 225 231 233 229 227 231 207 224 236 241 242 241 245 246 250 258 259 262 264 260 258 262 254 249 249 250 254 258 257 242 250 253 253 255 257 261 267 279 295 294 274 276 290 305 307 311 317 314 312 307 300 297 289 295 299 299 292 289 283 302 303 286 284 289 288 287 286 295 301 305 307 308 308
178 149 155 160 178 186 187 183 190 216 229 225 227 232 236 234 232 222 204 225 241 246 249 242 252 256 253 251 254 257 260 259 263 276 279 274 261 261 265 268 266 268 270 288 306 317 317 312 308 302 300 305 311 314 315 316 318 319 313 311 309 307 311 309 301 302 289 277 265 276 279 284 291 281 288 287 294 295 296 292 296 303 306 306 311
166 181 179 181 178 176 182 188 197 220 225 230 230 232 236 234 230 173 196 204 241 249 253 245 238 237 236 240 247 253 258 254 261 273 280 285 275 273 282 280 281 299 305 320 320 312 307 306 308 312 314 316 317 318 320 321 319 319 320 319 318 322 307 303 303 305 308 319 304 283 290 299 323 318 305 300 299 304 304 295 288 293 304 312 315
189 191 171 167 175 179 185 194 198 206 224 228 229 233 234 230 222 187 200 211 240 245 247 248 244 242 239 256 258 248 249 249 266 278 281 287 287 287 280 293 303 311 318 321 309 294 306 325 329 326 326 326 328 328 326 325 326 330 325 314 310 306 309 315 314 317 314 312 302 338 331 320 327 326 311 306 298 279 284 296 302 308 314 309 306
189 158 169 175 177 189 196 194 200 206 223 230 231 233 233 231 228 182 192 202 232 240 247 247 243 233 239 254 264 266 262 262 272 283 290 292 283 280 307 312 326 324 316 306 301 328 342 330 329 336 329 332 330 327 325 330 332 334 327 320 326 330 323 320 317 318 311 303 314 343 318 318 319 318 320 316 308 310 308 313 317 310 301 297 302